Aérodrome :
LOGIN :

S'inscrire | Disclaimer

   EN    FR    IT 

 










Légende :    VFR   VFR Marginal   IFR   IFR Intensif   IFR Très Intensif
Visi : 
Plafond : 
>= 8 km
>= 3000ft
5 à 8 km
1000 à 3000 ft
1500m à 5 km
500 à 1000 ft
800 à 1500m
200 à 500 ft
< 800m
< 200 ft
Symboles :   Orages  Brouillard  Fortes neiges  Fortes précipitations  Vent > 20 kt
SIGMETs :   Divers  Orages  Givrage  Turbulence  Onde Orograph.  Cendres Volcan.







- Altitude de l'aérodrome : 87 ft
- Code IATA : AHO


LIEA - Fertilia Alghero

DERNIER METAR :
  • 200820Z VRB02KT CAVOK 05/05 Q1012

METARs EXPIRÉS :
  • 200750Z VRB02KT CAVOK 03/03 Q1012
  • 200720Z 06002KT 9999 MIFG NSC 03/02 Q1012
  • 200650Z 36002KT 9999 MIFG NSC 03/02 Q1012
  • 200620Z 02003KT 9999 MIFG NSC 02/02 Q1012
  • 200550Z VRB01KT 7000 1000E MIFG NSC 03/02 Q1012

TAF TAF LIEA
Valide du 20 à 06h jusqu'au 21 à 06h UTC


200500Z 2006/2106 19010KT 7000 SCT018 SCT040
BECMG 2014/2016 04010KT
BECMG 2022/2024 RA
Pas de NOTAMs connus pour ce terrain.



MET'MAP, la Météo Aéronautique d'un coup d'oeil ! - Copyright ORBIFLY Décembre 2007 - Disclaimer

ORBIFLY MET'MAP TEAM :

Programmation & Développement : Alexandra Zaïnal
Conception & Développement : Baudouin d'Aumeries
Co-Programmation & Développement : Marc-Olivier Méhu
Soutien technique & logistique : Manuel Goepfert

Contact : metmap@orbifly.com




SOURCES & CREDITS :

   NOAA